Location: Excel
(51.3833°N, 110.5667°W)
Time: 14:04:40
(UTC+00:00)

Envisat - Pass Details

Date: 11 December 2021
Orbit: 764 x 766 km, 98.2° (Epoch: 28 January)

Event Time Altitude Azimuth Distance (km) Brightness Sun altitude
Rises 14:29:29 0° 3° (N) 3,248 6.0 -7.1°
Reaches altitude 10° 14:32:47 10° 340° (NNW) 2,316 5.1 -6.7°
Maximum altitude 14:35:29 15° 308° (NW) 2,006 4.5 -6.3°
Drops below altitude 10° 14:38:11 10° 276° (W) 2,308 4.9 -5.9°
Sets 14:41:29 0° 253° (WSW) 3,229 5.8 -5.5°
